Weather History for EHKD - November, 2013

Change the Weather History Date:

Sunday, November 10, 2013

  Actual Average Record
Temperature  
Mean Temperature 46 °F -  
Max Temperature 51 °F 47 °F 57 °F (2005)
Min Temperature 40 °F 38 °F 35 °F (2002)
Degree Days  
Heating Degree Days 20    
Moisture  
Dew Point 39 °F    
Average Humidity 77    
Maximum Humidity 87    
Minimum Humidity 54    
Precipitation  
Precipitation 0.08 in 0.11 in - ()
Sea Level Pressure  
Sea Level Pressure 29.71 in    
Wind  
Wind Speed 10 mph ()    
Max Wind Speed 21 mph    
Max Gust Speed 26 mph    
Visibility 6.2 miles    
Events Rain , Hail , Thunderstorm    
Averages and records for this station are not official NWS values.
T = Trace of Precipitation, MM = Missing Value Source: Averaged Metar Reports

Daily Weather History Graph

Daily Weather History Graph

Search for Another Location

Airport or City:

Trip Planner

Search our weather history database for the weather conditions in past years. The results will help you decide how hot, cold, wet, or windy it might be!

Date:

Astronomy

Nov. 10, 2013 Rise Set
Actual Time 7:55 AM CET 4:53 PM CET
Civil Twilight 7:17 AM CET 5:31 PM CET
Nautical Twilight 6:35 AM CET 6:12 PM CET
Astronomical Twilight 5:55 AM CET 6:53 PM CET
Moon 1:43 PM CET (11/10) No Moon Set
Length of Visible Light 10h 13m
Length of Day
8h 58m
First Quarter, 52% of the Moon is Illuminated
Nov 10
First Quarter
Nov 17
Full
Nov 25
Last Quarter
Dec 3
New
Dec 9
First Quarter

Hourly Weather History & Observations

Time (CET) Temp. Windchill Dew Point Humidity Pressure Visibility Wind Dir Wind Speed Gust Speed Precip Events Conditions
12:25 AM 46.4 °F 41.9 °F 37.4 °F 71% 29.53 in 6.2 mi WNW 9.2 mph - N/A   Scattered Clouds
12:55 AM 46.4 °F 41.5 °F 39.2 °F 76% 29.53 in 6.2 mi WNW 10.4 mph - N/A   Scattered Clouds
1:00 AM 46 °F - 39 °F 68% 29.54 in 28 mi WNW 11.2 mph - -   Partly Cloudy
1:25 AM 46.4 °F 41.1 °F 39.2 °F 76% 29.53 in 6.2 mi WNW 11.5 mph - N/A   Mostly Cloudy
1:55 AM 46.4 °F 40.1 °F 37.4 °F 71% 29.53 in 6.2 mi WNW 15.0 mph - N/A   Mostly Cloudy
1:59 AM 44.6 °F 38.1 °F 39.2 °F 81% 29.53 in - WNW 13.8 mph - N/A   Mostly Cloudy
2:03 AM 44.6 °F 37.8 °F 39.2 °F 81% 29.53 in 3.1 mi WNW 15.0 mph - N/A Rain Rain
2:07 AM 44.6 °F 38.1 °F 39.2 °F 81% 29.53 in 6.2 mi West 13.8 mph 25.3 mph N/A Rain Light Rain Showers
2:12 AM 44.6 °F 38.4 °F 39.2 °F 81% 29.53 in 6.2 mi West 12.7 mph - N/A Rain Light Rain Showers
2:18 AM 44.6 °F 37.2 °F 39.2 °F 81% 29.53 in 6.2 mi WNW 17.3 mph - N/A Rain Light Rain Showers
2:25 AM 44.6 °F 36.9 °F 37.4 °F 76% 29.53 in 5.0 mi NW 18.4 mph - N/A Rain Rain Showers
2:36 AM 42.8 °F 37.0 °F 37.4 °F 81% 29.53 in 5.6 mi NW 10.4 mph - N/A Rain Light Rain Showers
2:43 AM 42.8 °F 39.3 °F 37.4 °F 81% 29.53 in 6.2 mi WNW 5.8 mph - N/A   Mostly Cloudy
2:55 AM 44.6 °F 40.2 °F 37.4 °F 76% 29.53 in 6.2 mi WNW 8.1 mph - N/A Rain Light Rain
3:03 AM 44.6 °F 39.7 °F 39.2 °F 81% 29.53 in 6.2 mi NW 9.2 mph - N/A Rain Drizzle
3:14 AM 44.6 °F 40.2 °F 39.2 °F 81% 29.53 in 6.2 mi WNW 8.1 mph - N/A Rain Light Rain
3:18 AM 42.8 °F 37.0 °F 39.2 °F 87% 29.53 in 6.2 mi NW 10.4 mph - N/A Rain Heavy Drizzle
3:25 AM 42.8 °F 37.0 °F 39.2 °F 87% 29.56 in 6.2 mi NW 10.4 mph - N/A Rain Light Rain
3:36 AM 42.8 °F 40.1 °F 39.2 °F 87% 29.53 in 6.2 mi NNW 4.6 mph - N/A Rain Light Rain
3:40 AM 42.8 °F 39.3 °F 39.2 °F 87% 29.53 in 6.2 mi NNW 5.8 mph - N/A Rain Light Rain
3:46 AM 44.6 °F 40.2 °F 39.2 °F 81% 29.53 in 6.2 mi WNW 8.1 mph - N/A Rain Light Rain
3:55 AM 44.6 °F 39.2 °F 39.2 °F 81% 29.53 in 6.2 mi West 10.4 mph - N/A   Mostly Cloudy
4:00 AM 45 °F - 40 °F 75% 29.57 in 14 mi West 13.4 mph - - Rain Light Rain Showers
4:03 AM 44.6 °F 38.1 °F 39.2 °F 81% 29.56 in 4.3 mi West 13.8 mph - N/A Rain Light Rain
4:07 AM 44.6 °F 37.4 °F 39.2 °F 81% 29.56 in 6.2 mi West 16.1 mph - N/A Rain Light Rain
4:11 AM 42.8 °F 34.5 °F 39.2 °F 87% 29.56 in 3.1 mi West 18.4 mph - N/A Rain Light Rain Showers
4:16 AM 42.8 °F 34.3 °F 39.2 °F 87% 29.56 in - West 19.6 mph - N/A Rain Light Rain Showers
4:25 AM 42.8 °F 34.0 °F 37.4 °F 81% 29.56 in 5.0 mi West 20.7 mph - N/A Rain Light Rain
4:27 AM 42.8 °F 34.0 °F 37.4 °F 81% 29.56 in 5.6 mi West 20.7 mph - N/A Rain Light Rain
4:35 AM 42.8 °F 34.3 °F 39.2 °F 87% 29.56 in 6.2 mi West 19.6 mph - N/A Rain Light Rain
4:43 AM 42.8 °F 35.8 °F 39.2 °F 87% 29.56 in 3.7 mi WSW 13.8 mph - N/A Rain Light Rain Showers
4:49 AM 42.8 °F 36.2 °F 39.2 °F 87% 29.56 in 6.2 mi WSW 12.7 mph - N/A Rain Light Rain Showers
4:55 AM 42.8 °F 36.2 °F 37.4 °F 81% 29.56 in 6.2 mi WSW 12.7 mph - N/A Rain Light Rain Showers
5:07 AM 42.8 °F 38.0 °F 37.4 °F 81% 29.56 in 4.3 mi WNW 8.1 mph - N/A Rain , Thunderstorm Light Thunderstorms and Rain
5:18 AM 42.8 °F 37.5 °F 39.2 °F 87% 29.56 in 5.0 mi West 9.2 mph - N/A Rain , Thunderstorm Light Thunderstorms and Rain
5:25 AM 42.8 °F 38.6 °F 39.2 °F 87% 29.56 in 6.2 mi West 6.9 mph - N/A Rain , Thunderstorm Light Thunderstorms and Rain
5:34 AM 42.8 °F 37.5 °F 39.2 °F 87% 29.56 in - WSW 9.2 mph 21.9 mph N/A Rain , Thunderstorm Light Thunderstorms and Rain
5:38 AM 41.0 °F 33.9 °F 37.4 °F 87% 29.56 in 1.9 mi NW 12.7 mph - N/A Rain , Thunderstorm Thunderstorms and Rain
5:42 AM 41.0 °F 35.2 °F 37.4 °F 87% 29.56 in 6.2 mi NW 9.2 mph - N/A Rain Light Rain Showers
5:46 AM 41.0 °F 36.4 °F 37.4 °F 87% 29.56 in 6.2 mi NW 6.9 mph - N/A Rain Light Rain
5:55 AM 41.0 °F 38.0 °F 37.4 °F 87% 29.56 in 6.2 mi WNW 4.6 mph - N/A   Overcast
6:05 AM 42.8 °F 40.1 °F 39.2 °F 87% 29.56 in 3.1 mi NNW 4.6 mph - N/A   Heavy Drizzle
6:09 AM 42.8 °F 40.1 °F 37.4 °F 81% 29.56 in 6.2 mi North 4.6 mph - N/A Rain Light Rain
6:14 AM 42.8 °F 38.6 °F 39.2 °F 87% 29.56 in 6.2 mi North 6.9 mph - N/A Rain Light Rain
6:18 AM 42.8 °F 38.6 °F 39.2 °F 87% 29.56 in 6.2 mi North 6.9 mph - N/A Rain Light Rain
6:25 AM 42.8 °F 40.1 °F 39.2 °F 87% 29.56 in 6.2 mi North 4.6 mph - N/A Rain Light Rain
6:34 AM 42.8 °F - 39.2 °F 87% 29.56 in 6.2 mi North 2.3 mph - N/A Rain Light Rain
6:38 AM 42.8 °F 41.1 °F 37.4 °F 81% 29.56 in 6.2 mi NNE 3.5 mph - N/A   Mostly Cloudy
6:44 AM 42.8 °F 40.1 °F 39.2 °F 87% 29.59 in 4.3 mi North 4.6 mph - N/A Rain Light Rain
6:48 AM 42.8 °F 41.1 °F 39.2 °F 87% 29.59 in 6.2 mi North 3.5 mph - N/A Rain Light Rain
6:55 AM 42.8 °F - 39.2 °F 87% 29.59 in 6.2 mi North 2.3 mph - N/A Rain Light Rain
7:00 AM 42 °F - 39 °F 87% 29.60 in 25 mi North 2.2 mph - - Rain Light Drizzle
7:07 AM 42.8 °F 41.1 °F 39.2 °F 87% 29.59 in 6.2 mi North 3.5 mph - N/A   Light Drizzle
7:25 AM 42.8 °F 41.1 °F 39.2 °F 87% 29.59 in 6.2 mi NNE 3.5 mph - N/A   Mostly Cloudy
7:55 AM 44.6 °F 39.7 °F 37.4 °F 76% 29.62 in 6.2 mi NNW 9.2 mph - N/A   Overcast
8:25 AM 44.6 °F 40.2 °F 37.4 °F 76% 29.62 in 6.2 mi NNW 8.1 mph - N/A   Mostly Cloudy
8:55 AM 44.6 °F 37.8 °F 37.4 °F 76% 29.65 in 6.2 mi North 15.0 mph - N/A   Mostly Cloudy
8:58 AM 44.6 °F 38.1 °F 39.2 °F 81% 29.65 in 6.2 mi North 13.8 mph - N/A Rain Rain
9:06 AM 44.6 °F 38.4 °F 37.4 °F 76% 29.65 in 3.7 mi North 12.7 mph 25.3 mph N/A Rain Light Rain
9:15 AM 44.6 °F 38.8 °F 39.2 °F 81% 29.65 in 6.2 mi North 11.5 mph 24.2 mph N/A   Mostly Cloudy
9:25 AM 44.6 °F 40.2 °F 39.2 °F 81% 29.65 in 6.2 mi North 8.1 mph - N/A Rain Light Rain
9:36 AM 44.6 °F 40.2 °F 39.2 °F 81% 29.68 in 6.2 mi NNW 8.1 mph - N/A   Scattered Clouds
9:55 AM 44.6 °F 38.8 °F 37.4 °F 76% 29.68 in 3.7 mi NNW 11.5 mph 25.3 mph N/A Rain Rain
9:57 AM 44.6 °F 38.1 °F 37.4 °F 76% 29.68 in 6.2 mi NNW 13.8 mph 25.3 mph N/A Rain Light Rain
10:00 AM 45 °F - 37 °F 66% 29.70 in 14 mi NNW 11.2 mph - - Rain Rain
10:11 AM 44.6 °F 39.7 °F 37.4 °F 76% 29.68 in 6.2 mi NNW 9.2 mph - N/A   Mostly Cloudy
10:25 AM 46.4 °F 41.1 °F 39.2 °F 76% 29.71 in 6.2 mi NNW 11.5 mph - N/A   Mostly Cloudy
10:34 AM 46.4 °F 39.8 °F 39.2 °F 76% 29.71 in 3.7 mi NNW 16.1 mph - N/A   Mostly Cloudy
10:38 AM 44.6 °F 37.8 °F 39.2 °F 81% 29.71 in 6.2 mi NNW 15.0 mph - N/A Rain Light Rain
10:55 AM 44.6 °F 42.2 °F 39.2 °F 81% 29.71 in 6.2 mi NW 4.6 mph - N/A   Scattered Clouds
11:02 AM 44.6 °F 40.7 °F 39.2 °F 81% 29.74 in 6.2 mi NW 6.9 mph - N/A   Mostly Cloudy
11:25 AM 48.2 °F - 41.0 °F 76% 29.74 in 6.2 mi NNW 6.9 mph - N/A   Partly Cloudy
11:32 AM 46.4 °F 41.9 °F 39.2 °F 76% 29.74 in 6.2 mi NNW 9.2 mph - N/A   Mostly Cloudy
11:36 AM 46.4 °F 41.1 °F 39.2 °F 76% 29.77 in 6.2 mi NNW 11.5 mph - N/A   Mostly Cloudy
11:55 AM 48.2 °F - 41.0 °F 76% 29.77 in 6.2 mi NNW 13.8 mph - N/A   Mostly Cloudy
12:25 PM 46.4 °F 41.1 °F 37.4 °F 71% 29.77 in 6.2 mi NNW 11.5 mph - N/A   Scattered Clouds
12:55 PM 48.2 °F - 37.4 °F 66% 29.80 in 6.2 mi NNW 10.4 mph - N/A   Partly Cloudy
1:00 PM 49 °F - 37 °F 54% 29.83 in 22 mi NNW 8.9 mph - -   Partly Cloudy
1:25 PM 50.0 °F - 39.2 °F 66% 29.83 in 6.2 mi NNW 12.7 mph - N/A   Unknown
1:45 PM 50.0 °F - 41.0 °F 71% 29.83 in 3.7 mi NW 15.0 mph - N/A Rain Rain
1:49 PM 46.4 °F 40.1 °F 37.4 °F 71% 29.83 in 6.2 mi NNW 15.0 mph - N/A Rain , Hail Hail Showers
1:55 PM 44.6 °F 37.8 °F 39.2 °F 81% 29.86 in 6.2 mi NNW 15.0 mph - N/A Rain , Hail Light Rain Showers
2:04 PM 46.4 °F 42.4 °F 39.2 °F 76% 29.86 in 6.2 mi NNW 8.1 mph - N/A Thunderstorm Thunderstorm
2:25 PM 46.4 °F 44.3 °F 41.0 °F 81% 29.86 in 6.2 mi NNW 4.6 mph - N/A   Mostly Cloudy
2:41 PM 50.0 °F - 41.0 °F 71% 29.89 in 6.2 mi NNW 11.5 mph - N/A   Scattered Clouds
2:55 PM 50.0 °F - 39.2 °F 66% 29.89 in 6.2 mi NNW 15.0 mph 26.5 mph N/A   Scattered Clouds
3:25 PM 50.0 °F - 39.2 °F 66% 29.92 in 6.2 mi NNW 12.7 mph - N/A   Partly Cloudy
3:55 PM 50.0 °F - 37.4 °F 62% 29.92 in 6.2 mi NNW 13.8 mph - N/A   Scattered Clouds
4:00 PM 49 °F - 39 °F 59% 29.95 in 25 mi NNW 13.4 mph - - Rain Rain
4:25 PM 50.0 °F - 39.2 °F 66% 29.95 in 6.2 mi NNW 13.8 mph - N/A   Scattered Clouds
4:55 PM 50.0 °F - 41.0 °F 71% 29.98 in 6.2 mi NNW 11.5 mph - N/A   Mostly Cloudy
5:25 PM 50.0 °F - 39.2 °F 66% 30.01 in 6.2 mi NNW 13.8 mph - N/A   Partly Cloudy
5:55 PM 50.0 °F - 39.2 °F 66% 30.01 in 6.2 mi NNW 12.7 mph - N/A   Partly Cloudy
6:25 PM 48.2 °F - 39.2 °F 71% 30.04 in 6.2 mi NNW 11.5 mph - N/A   Unknown
6:55 PM 48.2 °F - 39.2 °F 71% 30.06 in 6.2 mi NNW 15.0 mph - N/A   Partly Cloudy
7:00 PM 49 °F - 40 °F 61% 30.08 in 18 mi NNW 13.4 mph - - Rain Light Drizzle
7:25 PM 50.0 °F - 39.2 °F 66% 30.06 in 6.2 mi NNW 12.7 mph - N/A   Scattered Clouds
7:55 PM 48.2 °F - 41.0 °F 76% 30.09 in 6.2 mi NNW 10.4 mph - N/A   Drizzle
7:59 PM 48.2 °F - 39.2 °F 71% 30.09 in 6.2 mi NNW 10.4 mph - N/A Rain Light Rain
8:25 PM 48.2 °F - 39.2 °F 71% 30.12 in 6.2 mi NNW 9.2 mph - N/A   Scattered Clouds
8:55 PM 48.2 °F - 37.4 °F 66% 30.12 in 6.2 mi NNW 9.2 mph - N/A   Unknown
9:25 PM 48.2 °F - 39.2 °F 71% 30.15 in 6.2 mi NNW 11.5 mph - N/A Rain Light Rain
9:55 PM 48.2 °F - 39.2 °F 71% 30.15 in 6.2 mi NNW 10.4 mph - N/A   Scattered Clouds
10:00 PM 48 °F - 39 °F 61% 30.18 in 19 mi NNW 8.9 mph - - Rain Rain
10:25 PM 48.2 °F - 37.4 °F 66% 30.15 in 6.2 mi NNW 8.1 mph - N/A   Unknown
10:55 PM 46.4 °F 42.9 °F 37.4 °F 71% 30.18 in 6.2 mi NNW 6.9 mph - N/A   Unknown
11:25 PM 46.4 °F 43.5 °F 37.4 °F 71% 30.18 in 6.2 mi NNW 5.8 mph - N/A   Unknown
11:55 PM 46.4 °F 43.5 °F 37.4 °F 71% 30.18 in 6.2 mi NW 5.8 mph - N/A   Unknown